Location: Hauröden
(51.4834°N, 10.4418°E)
Time: 06:50:21
(UTC+00:00)

Daily predictions for brighter satellites

Satellite Brightness Start Highest point End
(mag) Time Altitude Azimuth Time Altitude Azimuth Time Altitude Azimuth
USA 102 4.3 18:51:08 10° E 19:31:45 57° NE 20:56:35 10° NW
Cosmos 1980 Rocket 4.1 20:18:31 10° NNW 20:22:56 22° NE 20:27:19 10° E
Cosmos 1697 Rocket 3.9 20:21:26 10° NNW 20:26:32 33° NE 20:31:35 10° ESE
Resurs 01 Rocket 3.1 20:22:52 10° SSW 20:26:56 34° W 20:31:01 10° NNW
IRAS Rocket 4.3 20:21:46 10° NNE 20:27:25 82° ESE 20:33:01 10° SSW
USA 32 4.1 20:27:13 10° S 20:32:22 66° E 20:37:34 10° NNE
Ariane Rocket 4.1 20:33:10 10° S 20:38:00 42° W 20:42:51 10° NNW
Cosmos 1954 Rocket 4.2 20:33:06 10° NNW 20:38:25 74° WSW 20:43:37 10° SSE
Cosmos 1656 3.8 20:35:33 10° NNW 20:41:00 67° ENE 20:46:29 10° SE
CZ-2C R/B 4.1 20:38:06 10° NNE 20:42:35 47° E 20:46:58 10° S
USA 267 3.8 20:37:01 10° ENE 20:42:58 36° SE 20:48:52 10° SSW
Meteor 1-24 Rocket 3.6 20:39:03 10° S 20:44:22 89° E 20:49:50 10° NNE
NOSS 2-1 (C) 4.0 20:40:07 10° NW 20:44:25 75° SW 20:50:28 10° SE
Cosmos 1850 Rocket 4.4 20:40:49 10° NNW 20:45:58 54° ENE 20:51:01 10° SE
Cosmos 2315 Rocket 4.3 20:46:35 10° SSW 20:52:55 73° WNW 20:59:15 10° N
Helios 1A Rocket 3.2 20:50:05 10° S 20:54:07 64° WSW 20:58:13 10° NNW
NOSS 2-1 (D) 4.1 20:50:27 10° NW 20:54:46 65° SW 21:00:34 11° SSE
Cosmos 1833 Rocket 3.8 20:53:24 10° SSE 20:57:52 25° ESE 21:02:23 10° NE
SL-8 R/B 3.8 20:53:44 10° W 20:58:28 61° S 21:03:14 10° ESE
ARIANE 5 R/B 2.7 20:55:09 11° SSE 20:59:30 77° ENE 21:03:58 10° NNW
ATLAS 5 CENTAUR R/B 4.4 20:50:29 10° NW 21:02:30 34° WSW 21:06:45 10° S
SPOT 5 3.2 20:58:48 10° S 21:03:10 53° W 21:07:26 10° NNW
Cosmos 1025 Rocket 4.1 21:01:07 10° SSW 21:05:14 46° WNW 21:09:24 10° N
Lacrosse 5 rocket 2.6 21:03:00 10° WNW 21:06:17 26° SW 21:09:19 12° S
Cosmos 2074 Rocket 4.1 21:01:57 10° N 21:08:17 88° ENE 21:14:25 11° S
Spot 2 Rocket 4.2 21:03:57 10° S 21:08:54 51° W 21:13:54 10° NNW
RESURS DK-1 2.5 21:07:58 10° NNW 21:12:07 67° NE 21:15:36 14° SE
Cosmos 1452 Rocket 3.7 21:08:58 10° S 21:14:03 52° ESE 21:19:09 10° NNE
Cosmos 1271 Rocket 3.9 21:10:41 10° NNW 21:14:26 40° W 21:18:09 10° SSW
Tiangong 3.2 21:13:27 10° SW 21:14:49 12° S 21:15:07 12° S
ATLAS 2AS CENTAUR R/B 3.2 21:08:48 10° NW 21:15:38 50° WSW 21:21:29 13° SSE
Cosmos 2082 Rocket 3.9 21:15:46 12° SE 21:18:42 17° E 21:22:09 10° ENE
USA 234 3.3 21:12:38 10° ESE 21:19:14 88° SSW 21:25:50 10° WNW
SAR-Lupe-1 4.5 21:21:31 10° NNE 21:24:59 45° E 21:27:32 16° S
Cosmos 1607 4.1 21:19:50 10° SW 21:26:05 78° NW 21:32:18 10° NE
Cosmos 1110 Rocket 4.5 21:23:04 12° S 21:27:33 44° ESE 21:32:35 10° NE
Nadezhda 1 Rocket 4.0 21:22:54 11° S 21:28:38 66° E 21:34:39 10° NNE
Lacrosse 5 2.7 21:24:05 10° WNW 21:28:47 37° SW 21:32:24 16° SSE
Cosmos 1536 Rocket 3.8 21:27:12 10° SSW 21:31:30 70° WNW 21:35:52 10° N
Cosmos 2154 Rocket 4.0 21:25:26 10° N 21:31:43 88° W 21:37:10 14° S
USA 276 2.4 21:32:09 10° SW 21:34:58 37° SSE 21:37:47 10° E
Cosmos 2228 3.1 21:32:31 10° NNW 21:36:46 69° W 21:40:08 15° S
Cosmos 1606 Rocket 3.5 21:32:42 10° N 21:37:03 80° E 21:40:15 18° SSE
Cosmos 2344 4.2 21:28:57 10° NW 21:37:33 86° NE 21:49:16 11° SE
Terra 2.9 21:33:50 10° SSW 21:38:18 39° W 21:42:47 10° NNW
FALCON 9 DEB 3.4 21:36:04 10° W 21:39:19 66° N 21:42:35 10° E
SJ 16-02 4.0 21:40:55 10° NNE 21:42:36 12° NE 21:44:17 10° ENE
Cosmos 1825 4.2 21:44:54 12° ESE 21:46:36 16° E 21:48:55 10° NE
Cosmos 1900 4.4 21:41:58 10° NW 21:47:11 85° NE 21:51:13 17° SE
Cosmos 2084 Rocket 3.6 21:48:55 10° NW 21:52:46 61° NE 21:56:08 14° ESE
COSMOS 2406 3.8 21:49:46 17° S 21:53:45 40° ESE 21:59:04 10° NE
Cosmos 2084 4.1 21:50:05 10° WSW 21:53:50 50° NW 21:57:40 10° NE
X-37B 2.1 21:51:45 10° SW 21:53:00 18° SSW 21:53:00 18° SSW
Cosmos 2369 3.9 21:51:05 10° NNW 21:56:51 74° ENE 22:01:22 17° SE
SL-16 R/B 3.9 21:54:01 10° NNW 21:58:55 28° NE 22:03:45 10° E
Cosmos 1726 Rocket 3.6 21:57:55 10° NNW 22:02:15 75° W 22:05:09 20° S
Cosmos 968 Rocket 3.6 21:58:38 10° NNW 22:03:50 74° ENE 22:07:37 19° SSE
SL-8 Rocket 4.1 21:58:09 10° N 22:04:25 69° ENE 22:09:01 19° SSE
Cosmos 1980 Rocket 2.3 22:02:09 10° NNW 22:07:54 78° ENE 22:12:13 18° SE
Spot 4 3.9 22:06:05 20° SSE 22:09:21 78° ENE 22:14:10 10° NNW
Meteor 1-11 4.3 22:05:47 19° S 22:09:50 62° E 22:15:21 10° NNE
Cosmos 1697 Rocket 3.0 22:05:18 10° NW 22:10:50 58° WSW 22:14:40 20° S
Cosmos 2218 Rocket 4.2 22:07:55 10° N 22:14:21 70° ENE 22:19:02 19° SSE
ALOS 2 3.0 22:11:52 20° SE 22:14:44 56° ENE 22:19:04 10° N
Cosmos 1328 4.1 22:12:22 17° SSW 22:15:25 67° WNW 22:19:27 10° N
Cosmos 1892 2.9 22:13:39 25° SSE 22:15:34 53° E 22:19:15 10° NNE
Cosmos 2366 rocket 4.1 22:13:16 10° N 22:19:37 75° ENE 22:24:11 20° SSE
Cosmos 192 4.4 22:16:36 20° S 22:19:51 59° ESE 22:24:41 10° NNE
Cosmos 2341 Rocket 4.1 22:14:37 10° NNW 22:21:00 81° W 22:25:37 20° S
In-Cosmos 22 Rocket 4.4 22:21:57 21° SSE 22:25:37 56° E 22:31:00 10° NNE
ASTEX 1 3.8 22:20:54 10° N 22:25:51 61° W 22:29:51 16° SSW
Cosmos 1633 4.3 22:24:46 16° ESE 22:26:03 20° E 22:28:39 10° NE
USA 267 3.2 22:19:54 10° ENE 22:26:29 88° SSE 22:33:03 10° WSW
ADEOS Rocket 3.6 22:23:16 18° SSE 22:28:49 77° ENE 22:36:31 10° NNW
Cosmos 1486 Rocket 4.4 22:26:04 10° NNW 22:31:14 60° ENE 22:35:06 18° SE
Cosmos 2058 Rocket 3.3 22:29:09 10° NNW 22:33:30 62° W 22:36:09 23° S
Cosmos 2322 Rocket 3.5 22:33:45 10° NNW 22:38:58 36° NE 22:44:11 10° ESE
Cosmos 1892 Rocket 4.0 22:36:30 17° SSW 22:39:44 57° WNW 22:44:06 10° N
SL-8 R/B 4.3 22:36:11 10° W 22:40:36 37° SSW 22:42:54 23° SSE
Cosmos 1833 Rocket 3.0 22:35:46 10° SW 22:41:20 66° WNW 22:46:58 10° NNE
Cosmos 2278 3.7 22:36:13 10° NNW 22:41:59 84° ENE 22:46:07 20° SSE
H-2A R/B 3.5 22:38:41 10° NNE 22:42:53 69° ESE 22:45:11 26° S
Cosmos 1959 Rocket 4.5 22:39:10 10° NNW 22:45:17 79° W 22:49:27 22° S
GP-B 4.0 22:42:34 10° N 22:46:45 42° W 22:49:54 16° SW
Cosmos 1408 3.0 22:45:59 22° SW 22:47:54 52° WNW 22:51:19 10° N
Cosmos 807 4.3 22:45:48 10° N 22:49:22 72° E 22:50:35 34° SSE
Cosmos 1992 Rocket 4.5 22:46:40 23° SSE 22:49:31 45° ESE 22:54:31 10° NE
RESURS DK-1 4.4 22:46:59 10° WNW 22:49:37 17° WSW 22:51:26 13° SW
ATLAS 5 CENTAUR R/B 2.8 22:50:40 19° SE 22:51:12 20° ESE 22:54:10 10° ENE
Aureole 1 Rocket 4.4 22:47:03 10° NNW 22:53:43 80° ENE 23:00:10 17° SSE
Cosmos-2242 3.4 22:49:44 10° N 22:53:55 52° ENE 22:56:21 23° SE
Cosmos 1626 Rocket 3.5 22:54:02 26° S 22:56:23 78° E 23:00:45 10° NNE
Cosmos 2181 Rocket 4.0 22:52:48 20° SSW 22:57:17 80° W 23:03:33 10° N
Cosmos 1867 3.6 22:53:39 10° NW 22:59:05 65° SW 23:02:32 22° SSE
Cosmos 2082 Rocket 2.2 22:57:35 18° SSW 23:01:57 84° ESE 23:07:41 10° NNE
USA 234 3.9 22:59:13 21° S 23:02:46 35° SW 23:08:43 10° WNW
Cosmos 1503 Rocket 4.2 23:02:39 10° NNW 23:08:01 72° ENE 23:11:50 19° SE
Okean 1-7 Rocket 3.7 23:06:13 23° SSW 23:08:53 70° WNW 23:13:23 10° N
USA 276 1.8 23:07:28 10° W 23:10:27 67° S 23:13:27 10° E
Cosmos 1302 Rocket 4.4 23:09:21 14° SW 23:13:43 61° WNW 23:18:53 10° NNE
FALCON 9 DEB 2.9 23:12:26 10° WNW 23:15:43 88° NNE 23:19:00 10° ESE
Cosmos 2058 4.0 23:14:21 21° SE 23:16:26 35° E 23:20:16 10° NNE
Cosmos 1821 Rocket 4.0 23:10:29 10° N 23:16:49 87° W 23:20:59 22° S
Meteor 2-20 4.5 23:15:05 23° S 23:19:06 77° E 23:25:13 10° NNE
Cosmos 2360 Rocket 3.2 23:13:52 10° NNW 23:19:19 44° NE 23:24:44 10° ESE
Cosmos 1825 2.8 23:19:32 23° SW 23:21:32 49° WNW 23:25:12 10° N
SJ 16-02 1.8 23:17:46 10° NNW 23:22:10 59° ENE 23:25:19 18° SE
BREEZE-M DEB (TANK) 4.1 23:20:06 10° W 23:23:47 66° S 23:39:14 10° ESE
Cosmos 1869 4.3 23:20:16 10° NNW 23:23:47 34° W 23:25:34 22° SW
Geosat 4.4 23:22:14 12° SE 23:26:52 63° NE 23:31:51 10° NNW
ERS-2 2.1 23:25:04 10° NNE 23:28:40 75° WNW 23:30:22 29° SSW
Cosmos 1606 2.6 23:29:36 10° NNW 23:33:28 86° W 23:35:19 30° S
Nadezhda 3 Rocket 4.0 23:30:29 23° S 23:34:34 83° E 23:40:46 10° NNE
PSLV R/B 3.8 23:33:05 10° NNE 23:37:53 84° ESE 23:40:41 25° SSW
COSMOS 2406 4.1 23:32:29 10° SW 23:38:01 46° NW 23:43:35 10° NNE
Meteor 2-2 Rocket 4.4 23:35:51 10° NNW 23:41:52 82° ENE 23:46:14 20° SSE
Cosmos 1932 4.4 23:37:53 18° SW 23:42:44 81° SE 23:49:08 10° NE
Nimbus 7 Rocket 4.4 23:37:07 10° NNE 23:43:03 87° ESE 23:47:07 22° SSW
Cosmos 1758 Rocket 3.6 23:41:08 25° SSW 23:43:33 70° WNW 23:47:56 10° N
SL-16 R/B 2.2 23:37:54 10° NNW 23:43:36 75° WSW 23:47:37 20° SSE
Meteor 2-20 Rocket 4.4 23:41:09 22° S 23:45:16 85° E 23:51:25 10° NNE
Cosmos 2221 3.1 23:46:16 10° N 23:50:31 52° ENE 23:53:34 18° SSE
Cosmos 1980 Rocket 3.7 23:47:05 10° NW 23:51:17 21° W 23:53:57 16° SW
ALOS 2 4.4 23:49:16 14° SW 23:51:26 20° W 23:54:40 10° NW
